Theta_e
352 354 353 352 352 349 350 350 347 348 348 348 349 347 345 345 346 348 350 351 351 351 352 352 352 351 351 351 350 349 346 347 347 346 345 343 339 342 345 345 347 348 350 351 352 353 355 356 358 357 358 359 356 353 354 355 356 354 354 354 354 354 355
352 354 354 351 353 350 351 350 347 348 348 348 349 347 347 346 346 347 349 350 351 351 353 353 352 352 351 350 350 349 348 347 347 346 346 344 340 341 344 343 343 346 347 349 350 352 354 356 357 357 359 360 357 354 353 354 355 354 354 355 355 355 356
352 352 353 352 353 351 351 350 347 349 348 348 349 348 348 347 347 348 348 350 351 351 353 354 353 353 351 351 351 350 349 347 347 346 346 345 342 340 342 342 341 344 348 348 350 351 353 354 356 357 359 360 359 356 354 355 355 354 353 354 354 355 356
352 353 352 351 353 353 352 350 348 348 348 348 349 349 349 348 348 349 348 349 350 350 352 354 354 353 352 352 351 351 350 348 348 346 345 347 345 341 341 341 341 344 347 349 349 350 351 352 355 358 359 360 359 358 356 354 354 353 353 354 355 355 356
352 352 351 352 352 353 352 351 349 349 349 348 348 349 350 349 349 350 349 349 350 350 351 352 354 354 353 353 352 352 351 349 349 348 346 346 347 345 341 340 339 341 346 349 349 350 350 351 354 357 359 359 359 358 356 354 355 355 354 354 355 355 356
352 351 352 351 351 352 354 352 350 349 348 349 349 350 351 350 350 351 351 351 350 350 351 351 354 354 354 353 353 352 352 351 350 349 348 347 347 347 343 340 338 337 340 346 350 350 350 350 351 355 357 358 359 358 357 355 355 355 355 355 355 355 356
352 351 351 351 351 352 353 352 351 350 350 349 349 350 350 351 352 352 353 353 351 351 351 352 353 354 354 354 354 353 352 352 351 350 350 349 347 348 346 343 342 340 339 343 347 350 350 348 349 352 355 356 358 358 356 356 355 355 356 356 356 355 355
351 351 351 350 350 351 352 354 353 351 351 351 349 351 351 351 352 353 354 354 353 352 352 353 353 353 354 355 354 354 353 352 352 350 350 349 348 348 349 348 346 345 343 342 343 346 347 348 348 350 352 354 357 358 357 356 355 356 356 357 357 355 354
351 352 351 349 350 351 354 354 353 352 353 352 351 351 352 352 353 353 355 355 355 355 354 354 354 354 354 355 355 354 354 352 352 352 351 350 349 348 348 349 349 348 347 344 343 344 345 346 347 350 351 353 356 358 357 356 356 357 358 357 356 356 355
351 349 350 352 351 353 354 353 354 353 353 353 352 353 352 353 353 354 356 356 356 356 355 355 355 354 355 355 354 355 354 353 352 352 352 351 349 348 347 348 349 349 349 347 345 345 344 345 347 348 350 353 356 357 356 356 356 358 359 358 356 355 356
361 356 352 351 351 354 354 355 357 356 353 353 352 354 354 354 354 355 356 358 358 358 357 357 357 356 356 355 355 355 354 354 353 352 352 351 350 349 347 346 347 348 350 350 348 347 345 345 348 350 351 353 354 356 356 356 357 358 359 359 357 355 355
363 363 360 357 354 355 355 356 357 356 354 354 354 354 354 354 355 355 355 357 359 359 359 359 358 358 357 356 356 356 355 354 353 352 352 351 350 349 348 347 346 347 349 351 351 349 348 347 349 352 352 353 354 355 356 356 357 358 359 359 358 357 356
349 351 353 353 353 355 358 359 360 358 353 353 354 354 354 355 355 356 356 357 359 360 360 360 360 359 359 358 358 357 357 355 354 353 352 352 351 349 348 347 347 346 347 349 351 351 351 349 350 351 353 353 353 354 355 356 357 358 359 359 359 359 359
344 343 344 345 346 349 352 355 363 365 358 353 354 353 354 356 356 354 356 358 359 361 361 360 362 360 360 360 359 359 358 356 355 354 353 353 352 351 350 349 348 347 346 348 350 351 352 351 350 351 352 354 355 354 355 355 357 358 359 359 359 360 360
340 340 341 342 343 344 346 347 352 356 353 353 355 354 354 356 356 356 356 357 359 360 361 362 361 362 361 361 360 360 359 358 357 356 354 354 352 352 351 350 349 349 347 347 349 350 351 351 351 350 351 353 354 356 356 356 357 357 358 358 358 358 359
337 337 339 340 341 341 343 343 344 344 345 348 351 354 356 355 357 358 357 357 359 361 361 362 362 362 362 361 361 361 360 360 359 358 356 355 354 354 352 351 350 350 349 348 348 349 350 351 351 351 351 353 354 356 356 356 356 356 356 357 358 359 359
334 334 335 337 338 338 340 341 342 342 343 345 346 348 352 355 357 358 357 358 358 361 362 363 363 363 363 363 363 362 361 361 360 359 358 356 355 355 353 352 352 351 351 351 350 350 351 351 352 351 351 352 353 355 357 357 356 356 356 356 357 358 359
332 333 333 333 334 336 338 338 339 341 342 343 345 346 348 351 354 357 359 359 359 360 362 364 363 364 364 364 364 363 363 362 361 361 360 358 357 356 355 354 353 352 352 352 352 351 352 352 352 352 352 351 352 353 356 356 356 356 356 356 357 358 358
330 330 330 331 332 334 335 335 337 339 340 342 344 345 346 348 352 354 356 358 359 360 362 363 364 364 364 364 364 364 364 363 362 361 360 360 359 357 357 355 354 354 353 353 353 353 352 353 352 352 353 352 353 353 354 354 356 356 356 356 357 357 358
329 329 329 329 331 332 331 332 335 337 338 340 343 345 346 347 349 351 352 354 357 359 360 362 363 364 364 365 365 365 365 364 363 363 361 361 360 359 358 356 355 355 354 354 355 354 354 353 352 353 353 353 353 354 353 354 354 355 355 356 357 358 358
328 328 328 327 328 330 330 331 333 335 336 339 341 343 345 345 346 349 351 353 355 358 359 359 359 360 363 365 365 365 365 365 363 363 362 361 361 360 359 357 357 356 355 355 355 355 354 354 353 353 353 354 354 354 354 354 354 354 355 356 357 357 357
326 326 327 326 326 326 328 330 331 333 335 337 338 340 342 343 343 346 350 353 355 357 356 356 357 358 360 363 366 366 365 365 364 363 362 362 361 360 359 359 358 357 356 356 355 355 355 354 354 354 353 354 355 355 354 355 354 355 356 355 356 357 357
323 322 324 325 325 325 326 328 329 331 333 334 335 337 338 339 342 343 345 349 355 358 357 356 356 356 357 360 364 366 366 365 365 364 363 362 361 361 360 359 359 358 357 357 356 356 356 355 354 354 353 353 354 354 355 356 355 355 355 355 356 356 356
321 321 322 323 323 324 325 326 328 329 331 332 333 335 335 337 340 342 343 346 351 356 358 358 358 357 357 357 361 365 366 365 365 365 363 363 362 361 361 360 359 359 358 357 357 356 356 356 356 354 353 353 354 355 355 355 356 356 356 355 356 357 357
321 320 321 322 322 323 324 325 327 328 329 331 332 332 333 336 338 340 341 344 347 350 354 357 359 360 359 358 360 363 365 366 365 365 364 364 363 362 361 360 359 359 359 358 358 357 356 357 357 355 355 354 354 355 356 356 356 356 356 357 357 357 357
322 321 322 322 322 322 323 325 326 327 329 330 330 331 332 334 336 338 340 342 344 347 349 352 355 358 360 360 361 363 365 366 366 366 365 364 364 363 362 361 360 360 359 359 358 358 357 357 357 357 357 355 355 355 355 356 357 357 358 357 357 358 358
323 323 323 323 322 322 322 324 325 326 328 329 329 330 331 332 334 336 338 340 342 345 347 349 352 355 359 361 362 363 365 367 366 366 365 365 364 363 363 362 361 361 360 359 359 358 358 358 357 358 358 357 356 356 356 356 357 357 358 358 358 359 358
324 323 323 324 323 321 322 324 325 326 327 328 329 330 331 332 334 336 339 340 342 344 346 348 352 355 358 361 362 363 365 367 367 366 366 366 365 364 364 363 362 361 361 360 359 358 358 358 358 358 358 358 357 356 356 356 356 357 357 357 358 359 359
323 324 324 324 324 323 322 323 325 326 327 328 328 330 331 332 335 336 338 339 340 342 344 348 353 357 360 363 364 364 363 365 366 367 366 365 365 365 364 364 363 362 362 360 360 360 358 358 358 357 359 359 358 358 357 357 356 357 357 358 358 359 359
322 323 323 323 324 323 321 322 325 326 326 327 328 330 331 332 334 335 336 337 338 339 342 346 352 358 361 365 365 365 364 364 366 367 366 366 366 365 364 364 363 362 362 361 360 360 359 358 358 357 358 358 358 358 358 357 357 356 357 357 358 358 358
322 322 322 323 324 322 321 322 324 324 325 326 328 330 330 330 332 333 334 334 335 337 340 344 349 355 360 364 365 366 365 364 364 366 367 367 366 366 365 365 364 363 362 362 361 360 359 359 358 357 357 358 359 358 359 358 358 357 357 356 357 357 358
322 322 321 323 324 322 320 322 324 323 323 325 327 329 329 329 330 331 332 332 334 336 339 342 345 349 354 359 363 366 366 364 364 366 367 367 367 366 365 365 364 364 363 363 361 361 359 359 359 358 358 358 359 359 359 358 359 358 358 357 357 356 357
322 321 320 322 324 321 320 323 323 322 322 324 326 327 327 327 328 330 330 331 333 335 336 338 340 343 347 352 359 364 366 365 364 366 367 368 367 367 366 366 365 364 364 363 363 361 360 359 359 358 358 358 359 359 359 359 360 359 359 359 358 358 357
321 319 320 323 324 321 321 323 323 321 321 323 326 326 325 326 327 328 329 331 332 333 334 334 337 340 343 347 355 363 367 365 364 365 367 368 368 368 367 367 366 365 364 364 363 362 361 360 359 358 358 358 359 360 360 360 361 360 360 359 360 359 359
320 319 320 324 323 321 322 324 322 321 320 322 325 326 325 324 325 326 328 329 330 331 331 333 335 338 341 347 356 364 366 365 364 365 366 368 369 368 367 367 367 366 365 364 364 363 363 361 361 359 358 358 358 360 361 361 361 361 360 360 360 360 360
319 319 322 324 323 322 323 323 321 319 320 322 325 325 324 324 324 325 327 328 328 329 330 332 334 337 342 350 358 363 365 365 364 364 366 368 368 368 369 368 367 367 367 366 365 364 363 363 362 361 359 359 358 358 359 360 361 361 361 361 361 361 360
318 320 323 323 322 323 324 322 320 320 320 322 324 325 324 324 324 325 326 327 327 328 329 331 333 337 344 352 357 359 362 365 365 364 366 367 368 368 369 368 368 368 368 367 367 366 365 364 363 362 361 360 359 358 358 358 360 361 361 362 361 362 362
320 323 324 323 322 324 324 322 321 321 322 323 324 324 324 323 323 324 326 326 327 328 329 331 333 337 343 350 354 357 361 363 365 365 365 367 368 369 368 368 367 366 367 368 368 368 366 366 365 364 363 362 360 358 358 358 358 359 360 361 361 361 361
Wind_Speed
18 17 16 15 15 17 17 18 23 28 31 32 35 38 40 40 41 41 40 42 43 42 42 42 42 43 42 42 41 41 41 39 38 36 36 36 36 34 30 29 31 32 32 31 29 29 28 27 26 24 23 21 19 20 21 19 17 15 14 15 13 12 12
15 15 15 15 15 17 18 20 25 29 31 33 35 38 39 40 41 41 41 42 43 43 43 42 42 42 43 42 41 41 41 40 39 37 37 37 37 37 34 30 29 31 33 32 30 29 28 28 27 25 25 23 20 20 21 20 19 17 16 16 15 14 13
15 15 16 16 16 18 18 19 24 29 32 34 35 37 40 41 43 43 42 43 43 42 42 42 43 43 42 41 41 41 41 40 39 38 38 39 39 38 37 33 30 29 31 33 32 30 29 28 27 26 25 24 22 21 21 21 20 19 18 17 16 16 15
18 18 18 19 18 18 18 18 23 29 33 36 38 40 41 42 43 44 44 45 44 43 42 43 43 43 42 41 40 40 41 40 40 40 40 40 40 39 38 35 32 29 30 32 32 30 29 27 27 26 26 26 24 23 23 22 22 20 20 19 18 17 17
21 20 18 17 17 16 16 18 23 29 33 37 39 40 41 42 42 42 43 45 46 45 45 44 43 42 41 42 41 41 41 42 41 40 40 40 41 40 39 37 34 32 31 31 32 31 29 27 26 26 27 27 26 25 25 25 24 22 22 22 21 19 18
19 19 17 16 16 16 16 17 23 29 33 36 38 39 39 39 39 41 42 43 44 44 44 44 43 42 41 42 42 41 41 41 41 39 38 38 39 40 40 39 38 36 34 33 32 32 30 28 28 28 28 28 28 27 27 27 26 25 24 24 24 23 21
19 18 18 17 16 16 16 17 21 28 31 33 36 35 36 37 38 40 41 41 43 43 43 43 42 42 42 42 42 41 41 41 41 40 38 37 37 39 40 40 39 38 37 35 35 34 32 31 30 29 29 30 30 29 29 30 30 28 27 27 27 26 25
20 19 18 18 17 16 15 15 19 24 27 29 30 31 33 36 37 38 39 40 42 42 42 43 43 42 42 41 41 41 42 42 41 40 39 37 37 37 38 39 40 40 38 37 37 36 35 34 32 32 31 31 32 32 31 31 31 31 30 30 29 28 27
19 18 17 17 16 16 14 15 19 23 24 26 28 31 33 35 35 37 39 39 40 41 42 43 43 43 42 41 41 42 42 41 40 40 39 38 37 37 37 38 39 39 39 38 38 37 37 36 34 34 34 33 34 34 33 32 32 32 33 33 32 30 29
15 16 16 15 14 14 13 15 18 19 20 23 26 29 32 33 34 36 37 38 39 41 42 42 42 42 42 41 41 41 41 40 40 40 39 39 38 38 38 38 37 38 38 39 38 38 38 37 36 35 35 35 35 35 35 34 33 33 34 33 33 32 31
4 6 11 14 16 16 14 15 14 14 18 22 25 28 31 32 33 34 36 37 38 39 40 41 41 41 41 41 40 40 40 40 40 39 40 40 40 40 39 39 37 37 38 38 38 38 38 38 37 37 36 37 37 37 37 36 35 34 34 34 34 34 33
11 9 5 3 8 12 12 14 15 15 19 23 25 27 30 31 32 33 35 37 37 38 39 40 39 39 40 40 39 39 39 40 40 40 40 41 41 41 40 39 38 37 37 38 38 38 38 38 38 38 38 39 38 38 38 38 37 36 35 35 35 34 34
14 14 13 12 8 5 3 1 6 10 15 22 27 29 31 32 32 32 33 35 37 37 38 39 38 38 38 38 38 38 39 40 40 40 40 41 41 41 40 39 39 39 38 38 38 38 38 39 39 39 39 40 40 39 39 38 38 37 36 36 35 35 35
18 16 15 16 15 13 12 11 8 5 0 7 17 25 29 31 33 34 34 34 35 36 36 37 37 37 37 37 37 37 38 39 39 40 40 40 41 40 39 39 39 40 39 38 38 38 38 39 40 40 39 40 41 41 40 39 39 38 38 37 36 35 35
18 17 17 17 16 14 13 12 11 11 11 11 4 8 17 23 27 30 30 30 32 33 35 35 35 36 36 36 36 37 37 37 37 38 39 39 39 40 40 39 39 39 39 39 39 39 39 39 39 39 39 39 40 40 40 39 40 40 39 38 37 37 36
17 16 16 16 15 13 12 11 11 11 13 16 17 11 4 9 18 23 24 26 28 29 31 33 34 34 34 35 36 37 37 37 36 37 37 38 39 39 40 39 39 39 39 39 40 40 39 39 38 39 39 39 39 39 39 40 40 41 41 40 39 38 38
15 16 15 15 14 13 12 12 11 12 13 15 18 19 17 10 6 18 23 24 26 29 33 34 35 35 35 35 36 37 36 37 37 36 37 38 39 39 40 40 39 38 39 39 40 40 39 39 38 39 39 40 39 39 39 40 41 42 42 42 41 40 39
14 15 15 15 14 13 13 13 12 11 12 15 18 19 21 21 13 4 15 18 20 24 31 35 35 36 37 37 37 38 37 37 38 37 38 38 39 39 40 39 39 39 38 39 39 40 40 39 39 40 40 40 40 40 40 41 42 42 42 43 43 42 40
13 14 14 14 14 14 13 13 12 13 14 15 17 18 19 20 18 10 1 13 20 22 26 32 34 34 36 37 37 38 39 39 38 38 38 39 39 39 39 39 40 39 39 39 39 40 40 40 40 40 40 40 40 40 41 42 43 43 43 43 44 44 42
12 12 12 13 14 13 13 13 15 17 18 18 17 18 20 20 19 18 15 7 15 25 27 29 30 30 31 34 37 38 39 39 39 39 39 39 39 39 39 39 40 40 39 38 38 39 40 41 41 41 41 41 41 41 42 43 44 44 44 44 44 44 44
12 11 11 12 12 12 14 17 20 22 21 20 20 21 21 22 22 20 19 19 17 21 23 22 23 25 26 28 32 35 37 39 39 38 39 39 39 39 39 39 39 39 39 38 38 39 40 41 41 42 42 42 42 41 42 43 45 46 45 45 45 44 44
12 11 10 10 11 12 14 18 20 21 20 19 21 23 22 23 25 22 17 19 24 24 22 19 20 24 26 26 30 34 36 37 38 38 38 39 39 39 39 39 39 39 39 38 37 38 39 40 41 42 42 42 41 41 41 43 45 46 46 46 45 44 44
10 12 12 12 13 13 14 17 19 21 21 20 20 23 24 24 24 23 20 19 21 21 21 22 23 25 27 26 28 32 35 36 37 38 38 38 38 39 39 39 40 39 39 38 37 37 38 40 40 41 41 42 41 41 42 43 44 45 46 46 45 44 43
10 12 13 15 17 16 15 17 19 20 22 22 22 24 26 26 24 22 21 21 21 17 14 16 19 23 28 30 30 31 34 37 38 38 38 39 39 39 39 39 39 39 39 38 37 37 37 38 38 39 40 41 42 42 42 42 43 44 45 46 46 44 43
10 13 15 16 18 19 19 18 18 19 20 21 23 24 25 25 25 23 20 21 20 17 15 14 14 16 20 25 31 34 36 39 41 40 40 40 40 40 39 39 39 39 39 39 38 37 36 36 36 37 39 41 42 43 42 42 42 43 44 45 45 45 44
9 13 15 17 18 20 22 20 18 19 19 18 20 22 21 20 20 19 20 22 20 18 17 17 16 16 18 19 23 31 36 39 42 43 42 41 41 40 39 40 39 38 39 39 38 36 35 34 35 36 38 39 40 41 42 42 41 41 43 44 44 44 44
10 13 15 17 18 20 21 21 20 18 18 20 22 22 20 19 17 18 21 23 22 21 21 22 22 21 20 20 19 23 32 37 40 44 44 43 42 40 39 40 40 39 39 38 37 36 35 34 34 35 36 37 38 39 41 42 42 41 42 43 43 44 44
11 13 16 18 19 20 20 20 20 20 19 20 22 22 22 20 18 18 20 22 23 26 27 27 26 25 24 23 20 19 25 33 38 41 42 41 40 39 39 39 39 38 38 37 36 36 35 34 33 33 33 35 36 38 40 41 42 42 42 43 43 44 44
10 11 15 18 19 21 20 18 19 21 21 22 21 22 22 21 19 18 19 20 23 28 29 29 28 27 27 26 24 21 21 28 35 39 39 39 39 39 38 37 37 37 37 36 35 34 34 34 33 31 31 32 34 36 38 39 40 41 43 43 43 43 44
10 12 14 16 18 20 20 19 19 20 22 23 23 23 23 22 21 20 20 21 24 27 28 28 28 27 27 27 27 26 24 25 32 37 39 39 40 39 37 36 36 35 35 35 34 33 33 33 32 30 30 30 31 34 36 37 38 39 42 44 43 43 44
10 12 14 16 18 20 20 19 20 21 22 24 24 24 24 24 23 22 23 25 27 27 26 25 25 25 26 27 28 28 27 26 29 35 38 39 39 39 37 36 35 34 34 34 33 32 32 31 31 31 29 29 30 31 34 36 36 38 41 43 43 43 43
11 13 14 15 18 21 21 19 20 21 23 24 25 24 25 26 24 23 25 28 27 26 25 24 23 24 25 26 27 29 28 27 28 32 36 38 39 39 39 38 36 34 33 33 33 34 32 31 31 31 29 29 30 31 32 33 34 36 39 42 43 44 44
11 13 13 13 16 21 21 19 19 21 22 23 25 25 26 26 25 25 26 28 27 25 26 25 24 24 25 26 28 29 28 27 28 30 33 35 37 37 37 38 37 36 34 34 33 32 31 30 30 29 29 29 29 29 29 31 33 35 37 40 43 44 45
12 13 14 14 16 20 20 19 19 21 22 23 24 26 27 27 27 27 27 27 26 26 26 27 26 25 26 27 28 28 27 27 28 29 31 33 35 35 35 35 36 35 35 36 36 32 30 30 30 30 31 30 28 26 27 29 32 36 38 40 43 44 44
13 13 13 14 15 17 18 19 20 21 22 23 24 26 27 28 28 29 28 27 28 27 26 27 27 26 25 25 25 26 25 26 28 29 30 31 33 35 37 38 39 38 37 39 40 39 37 35 34 34 33 31 30 29 28 29 35 40 42 42 43 44 45
14 14 13 13 14 15 16 18 21 21 21 23 24 25 27 28 29 30 29 28 29 29 27 26 26 24 23 22 22 24 24 24 27 28 30 31 32 33 34 35 38 40 39 38 40 43 43 41 38 37 35 33 34 36 36 37 38 38 38 40 42 44 46
13 13 13 13 13 13 15 18 22 22 23 24 25 26 27 28 30 31 30 30 30 30 28 26 24 22 22 20 20 25 26 23 26 27 28 31 32 31 30 29 31 34 35 35 36 39 41 41 40 38 37 37 38 39 40 41 39 35 34 38 41 43 44
11 11 12 14 13 12 13 16 20 22 24 25 26 27 28 29 30 32 33 33 32 31 30 28 25 22 22 20 21 25 26 23 26 28 29 29 29 29 28 26 25 25 29 32 34 36 38 40 39 38 39 40 40 39 38 39 38 37 36 37 39 42 44
Wind_Direction
187 187 183 184 186 186 186 182 181 181 181 182 182 183 184 183 183 184 185 186 187 189 190 191 192 192 194 196 198 200 201 203 204 203 203 203 201 200 201 203 204 205 205 203 201 201 202 203 206 209 210 214 212 203 203 208 211 217 217 211 210 212 217
189 190 186 185 186 188 187 183 182 182 183 184 183 184 185 185 184 184 185 187 188 189 190 191 192 193 196 197 199 201 202 203 204 203 202 203 203 202 202 204 206 207 208 207 205 203 203 204 207 210 210 213 212 201 200 206 211 214 212 210 213 214 217
193 191 190 189 187 188 187 183 183 184 184 185 184 185 187 187 186 186 186 187 188 190 190 192 193 195 197 198 199 202 204 205 205 204 203 202 203 204 205 207 208 207 207 208 207 205 204 205 208 211 211 213 211 204 202 205 209 212 212 212 215 217 219
194 193 192 193 190 186 186 184 184 185 186 187 186 186 188 188 187 187 187 188 188 189 191 192 194 196 197 198 199 202 204 206 206 206 205 204 204 205 206 209 209 207 206 207 208 207 207 208 210 212 213 213 212 207 205 206 207 210 213 213 215 218 220
194 195 192 194 191 187 188 187 187 186 186 188 188 188 189 187 186 187 189 190 190 191 192 194 195 196 198 199 200 202 205 207 208 208 207 206 206 206 208 210 211 210 208 207 208 209 210 211 212 213 214 214 214 211 208 209 209 209 211 212 215 219 219
193 194 192 192 191 190 190 190 190 188 186 188 188 188 187 185 185 187 189 191 192 193 193 194 195 196 198 200 201 203 205 208 209 210 210 209 208 208 210 212 212 213 212 210 208 210 212 216 217 216 216 216 216 215 211 211 212 212 211 212 216 219 220
190 191 191 191 190 191 189 188 189 188 188 189 188 186 184 184 186 187 189 191 192 193 193 194 196 197 199 200 201 203 205 207 210 211 212 211 210 210 211 212 213 213 213 212 211 212 214 218 219 219 219 218 218 218 215 212 213 214 213 213 216 219 220
189 188 188 188 187 187 188 188 187 186 187 188 185 184 184 185 186 187 189 191 192 193 194 195 196 198 199 201 202 204 205 207 209 211 213 213 213 212 212 212 212 213 213 213 214 215 216 218 219 219 220 220 220 219 218 216 215 215 214 215 218 220 220
185 185 187 186 183 183 184 186 187 185 184 185 184 184 185 185 187 188 190 191 192 194 195 196 197 198 200 201 203 205 206 207 208 210 212 214 215 215 214 213 213 213 213 214 215 216 217 218 219 220 221 221 220 220 219 219 218 217 216 218 219 219 218
183 185 183 179 178 181 183 183 185 186 185 184 184 185 187 188 188 189 190 191 193 194 196 196 197 198 199 201 204 205 206 206 208 210 211 214 216 217 217 216 215 214 213 214 215 216 217 219 220 220 221 220 220 220 219 219 220 219 219 220 220 218 218
123 174 183 181 181 181 181 180 181 186 188 186 186 187 188 189 189 190 191 192 194 195 195 196 197 198 199 201 203 205 206 207 207 209 211 213 216 218 219 218 218 217 216 215 215 216 217 218 219 219 220 219 219 219 220 220 221 220 220 221 220 219 218
55 52 58 152 188 187 184 185 186 187 188 186 187 189 191 192 191 191 192 193 194 194 195 196 197 198 199 201 202 204 206 207 207 208 210 213 215 218 219 220 219 218 217 216 216 216 216 217 217 218 219 219 219 220 220 221 221 221 222 222 221 221 220
54 53 50 46 37 34 47 172 198 196 193 191 190 190 192 193 193 192 192 193 194 194 195 195 196 197 199 200 202 204 206 207 208 209 211 213 215 217 218 219 219 219 219 218 217 216 216 217 217 218 219 219 219 220 221 221 221 222 222 222 222 222 222
46 45 46 47 37 31 31 29 24 21 328 204 201 198 195 194 194 194 193 193 193 193 194 195 195 196 198 200 202 205 207 208 209 210 211 213 215 217 218 219 219 219 219 218 217 217 217 217 218 219 220 220 220 220 221 221 221 222 222 222 223 224 224
41 39 39 42 35 28 28 29 29 29 28 24 1 220 206 201 198 196 194 192 192 192 193 193 194 196 197 200 203 206 208 209 210 211 212 213 215 216 217 218 219 219 219 219 218 218 218 219 219 219 220 220 221 221 221 221 221 222 222 222 222 223 225
34 35 36 39 33 25 22 24 28 28 28 28 22 10 319 221 205 199 195 191 189 190 192 192 193 196 198 200 204 206 208 209 210 212 212 213 215 216 217 218 218 219 219 219 219 218 218 219 219 219 220 221 221 221 221 221 222 223 224 223 223 223 224
27 29 30 32 28 22 18 19 24 26 25 21 15 13 10 353 240 199 194 192 188 188 190 192 193 196 199 202 204 206 207 208 210 211 213 214 215 216 217 217 218 219 219 219 219 218 218 218 218 219 220 221 221 221 221 222 224 225 225 225 225 223 223
20 25 24 25 23 18 13 10 12 16 20 15 7 7 11 5 349 223 184 181 182 182 185 189 194 197 199 201 204 205 206 207 208 210 212 213 215 216 217 217 217 218 218 218 218 218 217 217 217 218 219 220 221 222 222 224 226 226 227 227 226 225 224
20 22 17 19 19 14 8 2 359 1 9 12 5 2 8 11 6 355 238 178 175 177 183 188 192 197 200 202 203 204 205 205 207 209 211 212 214 216 217 217 217 218 218 218 218 217 217 217 217 218 219 219 220 222 223 225 227 227 228 228 228 227 225
17 20 17 18 15 8 1 352 347 350 358 5 6 4 4 9 16 13 354 300 202 189 189 192 193 196 200 204 204 203 203 204 205 207 210 211 213 214 215 217 217 217 218 218 218 217 217 217 217 217 218 219 220 221 223 226 227 228 229 229 229 228 227
7 14 17 18 16 7 356 349 345 345 349 358 6 9 3 359 7 22 13 336 285 227 205 202 203 202 203 207 208 206 204 204 204 206 208 210 211 213 214 216 217 217 217 217 217 217 217 217 217 218 219 219 220 221 223 226 228 229 229 230 230 230 228
358 2 8 13 20 16 359 345 337 333 339 355 8 8 2 356 357 9 11 336 299 265 238 227 220 215 212 212 212 210 207 206 205 206 207 209 210 212 213 214 216 217 217 217 218 218 218 218 218 218 219 219 220 221 223 226 228 229 229 230 230 230 229
355 356 0 0 6 15 5 344 334 333 342 359 11 6 358 354 353 357 352 328 305 284 258 241 232 227 224 221 217 214 211 209 208 207 207 208 209 211 212 214 215 216 217 217 218 218 218 218 219 219 220 220 220 221 223 226 228 229 230 231 230 229 227
2 360 1 357 354 1 3 352 344 345 351 359 5 4 357 351 349 353 341 314 301 300 285 261 250 244 238 231 225 219 214 212 211 209 208 208 210 211 212 213 214 215 216 217 218 219 219 219 219 220 220 221 221 221 223 226 229 229 230 231 231 228 227
360 0 2 3 357 352 352 352 352 353 356 0 0 358 355 350 346 342 324 300 294 301 301 292 285 276 263 247 234 224 217 214 212 211 209 209 211 212 212 212 214 214 215 216 219 221 221 220 219 220 221 222 222 223 223 226 229 230 231 231 231 229 227
354 356 359 2 0 354 349 349 354 357 355 355 355 351 349 346 338 322 304 298 301 304 302 302 305 306 303 287 256 233 220 214 211 211 211 211 211 212 211 212 213 213 214 215 217 220 222 221 220 220 221 222 223 224 225 226 228 230 231 231 231 229 227
352 356 359 356 356 358 353 347 351 356 353 350 350 349 346 340 330 316 310 312 313 311 312 314 313 308 306 305 286 248 226 216 212 212 212 212 212 211 211 212 212 212 212 213 215 218 221 222 222 222 222 223 223 224 225 227 227 229 231 232 231 230 227
351 355 358 353 351 357 356 347 345 350 351 350 349 347 345 340 331 323 322 321 319 319 320 318 316 313 307 302 297 272 239 223 217 215 214 213 211 210 211 211 211 212 212 212 213 215 217 221 222 223 223 224 224 224 225 227 227 229 231 232 232 231 229
350 351 353 350 347 350 352 347 344 345 346 348 348 348 348 343 335 329 326 323 323 325 325 321 318 316 310 303 298 290 264 237 224 218 216 214 211 210 210 210 210 210 211 211 211 213 216 219 221 222 223 223 224 224 225 226 227 228 231 233 233 232 231
347 350 349 344 341 345 349 348 344 342 343 346 349 352 352 347 338 331 329 328 328 328 327 324 321 316 309 303 297 291 279 255 234 222 217 214 211 209 209 209 208 208 209 210 210 211 214 217 218 220 221 222 223 224 224 225 225 226 229 232 234 234 233
338 342 343 339 338 342 347 347 344 342 342 346 350 353 352 349 342 332 328 330 332 331 328 324 321 315 308 302 296 288 280 265 243 227 219 215 210 208 207 206 206 206 207 208 209 211 214 216 216 218 219 221 222 223 223 223 223 224 227 230 232 233 234
328 335 338 338 338 341 343 344 346 345 342 343 348 351 349 348 344 335 330 331 333 332 330 326 322 316 309 304 298 289 277 263 245 229 220 215 210 208 207 204 203 204 204 205 207 210 213 214 215 217 218 220 222 222 222 222 221 223 226 228 230 232 233
315 326 333 336 339 341 342 342 344 345 342 339 343 347 346 345 344 339 334 334 333 333 332 330 325 317 310 307 304 294 277 259 243 228 219 213 210 209 207 205 204 203 202 203 206 209 212 213 214 215 217 220 222 222 222 221 220 222 224 226 228 230 232
301 317 327 333 340 342 341 339 339 342 340 336 337 342 343 342 342 341 339 337 336 334 332 329 326 318 311 308 306 298 280 257 240 227 216 211 209 207 206 204 204 203 204 205 206 206 209 212 214 216 218 220 220 221 222 222 221 221 222 223 225 227 229
294 309 321 329 337 341 338 336 335 337 336 333 333 337 340 341 341 342 343 340 338 336 331 325 322 319 313 310 308 303 285 259 239 225 215 210 208 208 207 206 204 204 207 209 209 209 210 211 213 216 218 219 219 219 220 222 223 223 223 224 225 227 228
292 305 315 323 332 336 335 335 335 333 332 332 332 334 337 340 342 343 344 342 340 337 330 323 319 317 313 310 311 308 292 261 237 224 214 209 207 208 209 209 208 207 208 210 211 213 214 215 216 217 218 219 221 222 223 225 228 228 227 227 229 230 230
292 299 308 315 324 332 333 334 336 333 330 332 334 333 334 339 343 344 344 344 342 338 332 325 319 313 309 307 310 314 303 268 237 222 214 210 208 206 204 204 206 208 211 212 213 214 217 218 220 220 220 221 223 225 228 230 233 233 232 230 231 233 233
296 293 299 309 320 328 328 331 334 332 329 331 334 333 333 337 343 346 345 344 343 341 337 331 320 308 304 303 306 311 305 275 239 222 213 208 206 204 201 197 196 201 208 212 213 214 217 219 221 223 224 225 226 227 228 231 232 233 234 234 234 235 236